Weather History for Ciudad Obregon, Mexico

Change the Weather History Date:

Friday, October 26, 2012

  Actual Average Record
Temperature  
Mean Temperature 76 °F -  
Max Temperature 96 °F 88 °F 96 °F (1999)
Min Temperature 57 °F 64 °F 57 °F (1997)
Cooling Degree Days 12    
Growing Degree Days 26 (Base 50)    
Moisture  
Dew Point 47 °F    
Average Humidity 36    
Maximum Humidity 72    
Minimum Humidity 7    
Precipitation  
Precipitation 0.00 in - - ()
Sea Level Pressure  
Sea Level Pressure 29.76 in    
Wind  
Wind Speed 4 mph ()    
Max Wind Speed 16 mph    
Max Gust Speed -    
Visibility 10.9 miles    
Events      
Averages and records for this station are not official NWS values.
T = Trace of Precipitation, MM = Missing Value Source: Averaged Metar Reports

Daily Weather History Graph

Daily Weather History Graph

Search for Another Location

Airport:

Trip Planner

Search our weather history database for the weather conditions in past years. The results will help you decide how hot, cold, wet, or windy it might be!

Date:

Astronomy

Oct. 26, 2012 Rise Set
Actual Time 6:26 AM MST 5:39 PM MST
Civil Twilight 6:02 AM MST 6:03 PM MST
Nautical Twilight 5:34 AM MST 6:31 PM MST
Astronomical Twilight 5:07 AM MST 6:58 PM MST
Moon 3:47 PM MST (10/26) 3:38 AM MST (10/26)
Length of Visible Light 12h 01m
Length of Day
11h 13m
Waxing Gibbous, 91% of the Moon is Illuminated
Oct 26
Waxing Gibbous
Oct 29
Full
Nov 6
Last Quarter
Nov 13
New
Nov 20
First Quarter

Hourly Weather History & Observations

Time (MST) Temp. Heat Index Dew Point Humidity Pressure Visibility Wind Dir Wind Speed Gust Speed Precip Events Conditions
3:54 AM 60.8 °F - 51.8 °F 72% 29.75 in 8.0 mi Calm Calm - N/A   Clear
4:41 AM 60.8 °F - 51.8 °F 72% 29.75 in 8.0 mi North 3.5 mph - N/A   Clear
5:43 AM 57.2 °F - 48.2 °F 72% 29.77 in 10.0 mi ESE 4.6 mph - N/A   Clear
6:41 AM 59.0 °F - 48.2 °F 67% 29.78 in 10.0 mi Calm Calm - N/A   Clear
7:44 AM 69.8 °F - 50.0 °F 49% 29.80 in 10.0 mi Calm Calm - N/A   Clear
7:50 AM 63 °F - 53 °F 62% 29.83 in 12 mi WSW 4.5 mph - -  
8:42 AM 75.2 °F - 53.6 °F 47% 29.82 in 10.0 mi WNW 3.5 mph - N/A   Clear
9:43 AM 80.6 °F 80.3 °F 53.6 °F 39% 29.81 in 10.0 mi Calm Calm - N/A   Clear
10:44 AM 84.2 °F - 51.8 °F 33% 29.81 in 10.0 mi SW 2.3 mph - N/A   Clear
10:50 AM 88 °F - 56 °F 24% 29.83 in 19 mi SE 6.7 mph - -  
11:45 AM 89.6 °F - 46.4 °F 22% 29.78 in 10.0 mi SW 2.3 mph - N/A   Clear
12:44 PM 93.2 °F - 42.8 °F 17% 29.75 in 10.0 mi WNW 6.9 mph - N/A   Clear
1:41 PM 95.0 °F - 39.2 °F 14% 29.72 in 10.0 mi SW 9.2 mph - N/A   Clear
1:50 PM 96 °F - 39 °F 7% 29.75 in 19 mi WSW 15.7 mph - -  
2:42 PM 96.8 °F - 33.8 °F 11% 29.70 in 10.0 mi WSW 5.8 mph - N/A   Clear
3:42 PM 93.2 °F - 42.8 °F 17% 29.70 in 10.0 mi West 11.5 mph - N/A   Clear
4:42 PM 89.6 °F - 35.6 °F 15% 29.70 in 10.0 mi West 9.2 mph - N/A   Clear
4:50 PM 91 °F - 49 °F 14% 29.73 in 12 mi WSW 15.7 mph - -  
5:44 PM 84.2 °F - 44.6 °F 25% 29.72 in 10.0 mi WSW 3.5 mph - N/A   Clear
6:45 PM 78.8 °F - 46.4 °F 32% 29.75 in 10.0 mi West 5.8 mph - N/A   Clear
7:40 PM 75.2 °F - 50.0 °F 41% 29.75 in 10.0 mi West 2.3 mph - N/A   Clear